Baku, Azerbaijan

3:49 AM +04 on December 10, 2018 (GMT +0400)
Bina

Weather History for UBBB - March, 2018

Change the Weather History Date:

Monday, March 12, 2018

  Actual Average Record
Temperature  
Mean Temperature 42 °F -  
Max Temperature 46 °F - - ()
Min Temperature 35 °F - - ()
Degree Days  
Heating Degree Days 24    
Moisture  
Dew Point 38 °F    
Average Humidity 90    
Maximum Humidity 100    
Minimum Humidity 70    
Precipitation  
Precipitation 0.28 in - - ()
Sea Level Pressure  
Sea Level Pressure 30.17 in    
Wind  
Wind Speed 12 mph ()    
Max Wind Speed 30 mph    
Max Gust Speed 41 mph    
Visibility 4.9 miles    
Events Rain    
T = Trace of Precipitation, MM = Missing Value Source: Averaged Metar Reports

Daily Weather History Graph

Daily Weather History Graph

Search for Another Location

Airport or City:

Astronomy

Mar. 12, 2018 Rise Set
Actual Time 6:56 AM +04 6:42 PM +04
Civil Twilight 6:29 AM +04 7:10 PM +04
Nautical Twilight 5:57 AM +04 7:41 PM +04
Astronomical Twilight 5:26 AM +04 8:13 PM +04
Moon 3:52 AM +04 (3/12) 1:49 PM +04 (3/12)
Length of Visible Light 12h 40m
Length of Day
11h 46m
Waning Crescent, 24% of the Moon is Illuminated
Mar 12
Waning Crescent
Mar 17
New
Mar 24
First Quarter
Mar 31
Full
Apr 8
Last Quarter

Hourly Weather History & Observations

Time (+04) Temp. Windchill Dew Point Humidity Pressure Visibility Wind Dir Wind Speed Gust Speed Precip Events Conditions
12:00 AM 44.6 °F 42.2 °F 44.6 °F 100% 30.06 in 4.3 mi NE 4.6 mph - N/A   Light Drizzle
12:30 AM 44.6 °F 42.2 °F 44.6 °F 100% 30.06 in 1.6 mi NE 4.6 mph - N/A   Light Drizzle
1:00 AM 44 °F - 43 °F 94% 30.07 in 2 mi NNE 2.2 mph - - Rain Light Rain
1:00 AM 44.6 °F 43.1 °F 44.6 °F 100% 30.06 in 1.6 mi NNE 3.5 mph - N/A   Light Drizzle
1:30 AM 44.6 °F 42.2 °F 44.6 °F 100% 30.06 in - NNE 4.6 mph - N/A   Light Drizzle
2:00 AM 44.6 °F 42.2 °F 44.6 °F 100% 30.06 in - NE 4.6 mph - N/A   Light Drizzle
2:30 AM 44.6 °F 42.2 °F 44.6 °F 100% 30.06 in 1.6 mi NNE 4.6 mph - N/A   Light Drizzle
3:00 AM 44.6 °F 41.4 °F 44.6 °F 100% 30.04 in - NE 5.8 mph - N/A   Light Drizzle
3:30 AM 44.6 °F 40.7 °F 44.6 °F 100% 30.04 in - NNE 6.9 mph - N/A   Light Drizzle
4:00 AM 43 °F - 42 °F 94% 30.04 in 2 mi North 4.5 mph - - Rain Light Rain
4:00 AM 44.6 °F 40.2 °F 42.8 °F 93% 30.04 in 4.3 mi NNE 8.1 mph - N/A   Light Drizzle
4:30 AM 42.8 °F 38.6 °F 42.8 °F 100% 30.04 in 3.1 mi NNE 6.9 mph - N/A   Light Drizzle
5:00 AM 44.6 °F 43.1 °F 42.8 °F 93% 30.04 in 3.1 mi NE 3.5 mph - N/A   Light Drizzle
5:30 AM 44.6 °F 41.4 °F 42.8 °F 93% 30.04 in 2.5 mi NW 5.8 mph - N/A   Light Drizzle
6:00 AM 44.6 °F 41.4 °F 42.8 °F 93% 30.04 in 2.5 mi NW 5.8 mph - N/A   Light Drizzle
6:30 AM 44.6 °F 40.7 °F 42.8 °F 93% 30.06 in 2.5 mi NW 6.9 mph - N/A   Light Drizzle
7:00 AM 44 °F - 42 °F 91% 30.07 in 2 mi NW 8.9 mph - - Rain Light Rain
7:00 AM 44.6 °F 39.2 °F 42.8 °F 93% 30.06 in 1.4 mi NNW 10.4 mph - N/A   Light Drizzle
7:30 AM 42.8 °F 35.8 °F 42.8 °F 100% 30.09 in 1.2 mi NNW 13.8 mph - N/A Rain Rain
8:00 AM 42.8 °F 35.8 °F 42.8 °F 100% 30.09 in - NNW 13.8 mph - N/A Rain Light Rain
8:30 AM 42.8 °F 34.5 °F 42.8 °F 100% 30.12 in 3.1 mi North 18.4 mph - N/A Rain Light Rain
9:00 AM 42.8 °F 34.8 °F 42.8 °F 100% 30.12 in 3.7 mi NNW 17.3 mph - N/A Rain Light Rain
9:30 AM 41.0 °F 31.4 °F 39.2 °F 93% 30.15 in 6.2 mi NW 21.9 mph - N/A Rain Light Rain Showers
10:00 AM 39 °F - 38 °F 94% 30.16 in 6 mi West 29.1 mph - - Rain Light Rain
10:00 AM 39.2 °F 27.8 °F 37.4 °F 93% 30.15 in 6.2 mi NW 27.6 mph 39.1 mph N/A Rain Light Rain Showers
10:30 AM 39.2 °F 27.4 °F 37.4 °F 93% 30.15 in 6.2 mi NW 29.9 mph 41.4 mph N/A Rain Light Rain Showers
11:00 AM 39.2 °F 27.8 °F 37.4 °F 93% 30.18 in 6.2 mi NNW 27.6 mph 39.1 mph N/A Rain Light Rain Showers
11:30 AM 37.4 °F 25.2 °F 37.4 °F 100% 30.18 in 6.2 mi NNW 28.8 mph 40.3 mph N/A Rain Light Rain Showers
12:00 PM 39.2 °F 27.6 °F 37.4 °F 93% 30.18 in 6.2 mi NNW 28.8 mph 40.3 mph N/A Rain Light Rain Showers
12:30 PM 39.2 °F 28.3 °F 37.4 °F 93% 30.21 in 6.2 mi NNW 25.3 mph 40.3 mph N/A Rain Light Rain Showers
1:00 PM 39 °F - 37 °F 88% 30.22 in 6 mi WNW 26.8 mph - - Rain Light Rain
1:00 PM 39.2 °F 28.0 °F 37.4 °F 93% 30.21 in 6.2 mi NNW 26.5 mph 38.0 mph N/A Rain Light Rain Showers
1:30 PM 39.2 °F 27.6 °F 37.4 °F 93% 30.21 in 6.2 mi NNW 28.8 mph 40.3 mph N/A Rain Light Rain Showers
2:00 PM 39.2 °F 27.4 °F 37.4 °F 93% 30.21 in 6.2 mi NNW 29.9 mph - N/A Rain Light Rain Showers
2:30 PM 39.2 °F 27.4 °F 35.6 °F 87% 30.21 in 6.2 mi NNW 29.9 mph - N/A   Overcast
3:00 PM 39.2 °F 28.0 °F 35.6 °F 87% 30.21 in 6.2 mi North 26.5 mph - N/A Rain Light Rain
3:30 PM 39.2 °F 28.0 °F 35.6 °F 87% 30.21 in 6.2 mi NNW 26.5 mph - N/A Rain Light Rain
4:00 PM 38 °F - 35 °F 82% 30.24 in 6 mi NNW 22.4 mph - - Rain Light Rain
4:00 PM 39.2 °F 28.5 °F 35.6 °F 87% 30.24 in 6.2 mi North 24.2 mph - N/A   Overcast
4:30 PM 39.2 °F 28.3 °F 35.6 °F 87% 30.24 in 6.2 mi North 25.3 mph - N/A Rain Light Rain
5:00 PM 39.2 °F 28.3 °F 33.8 °F 81% 30.24 in 6.2 mi North 25.3 mph - N/A   Overcast
5:30 PM 39.2 °F 29.0 °F 33.8 °F 81% 30.24 in 6.2 mi North 21.9 mph - N/A   Overcast
6:00 PM 39.2 °F 28.7 °F 33.8 °F 81% 30.27 in 6.2 mi North 23.0 mph - N/A   Overcast
6:30 PM 37.4 °F 26.6 °F 33.8 °F 87% 30.27 in 6.2 mi North 21.9 mph - N/A   Overcast
7:00 PM 38 °F - 32 °F 71% 30.29 in 6 mi NNW 17.9 mph - -   Partly Cloudy
7:00 PM 37.4 °F 26.9 °F 32.0 °F 81% 30.27 in 6.2 mi NNW 20.7 mph - N/A   Overcast
7:30 PM 37.4 °F 27.2 °F 32.0 °F 81% 30.27 in 6.2 mi North 19.6 mph - N/A   Overcast
8:00 PM 37.4 °F 27.2 °F 32.0 °F 81% 30.30 in 6.2 mi North 19.6 mph - N/A   Overcast
8:30 PM 37.4 °F 27.2 °F 32.0 °F 81% 30.30 in 6.2 mi NNW 19.6 mph - N/A   Overcast
9:00 PM 37.4 °F 27.5 °F 32.0 °F 81% 30.30 in 6.2 mi NNW 18.4 mph - N/A   Overcast
9:30 PM 37.4 °F 27.5 °F 32.0 °F 81% 30.30 in 6.2 mi North 18.4 mph - N/A   Overcast
10:00 PM 37 °F - 31 °F 70% 30.31 in 6 mi NNW 17.9 mph - -   Overcast
10:00 PM 37.4 °F 28.2 °F 32.0 °F 81% 30.30 in 6.2 mi NNW 16.1 mph - N/A   Overcast
10:30 PM 37.4 °F 27.8 °F 30.2 °F 75% 30.30 in 6.2 mi North 17.3 mph - N/A   Overcast
11:00 PM 37.4 °F 27.8 °F 30.2 °F 75% 30.30 in 6.2 mi NNW 17.3 mph - N/A   Overcast
11:30 PM 35.6 °F 25.2 °F 30.2 °F 81% 30.30 in 6.2 mi NNW 18.4 mph - N/A   Overcast